Location: Sternwarte auf dem Internationalen Platz Vogelsang IP
(50.5721°N, 6.4398°E)
Time: 13:56:06
(UTC+01:00)

STARLINK-35139 - Pass Details

Date: 11 November 2025
Orbit: 288 x 289 km, 53.2° (Epoch: 15 November)

Event Time Altitude Azimuth Distance (km) Brightness Sun altitude
Exits shadow 04:51:38 - 76° (ENE) 1,247 5.5 -27.1°
Enters shadow 05:44:45 -71° 253° (WSW) 12,320 9.5 -18.7°
Maximum altitude 06:22:01 48° 350° (N) 381 1.6 -12.8°
